AO-07 1 07530U 74089B 25016.47065604 -.00000048 00000-0 -76283-5 0 9994 2 07530 101.9915 19.2115 0012337 38.0870 116.1837 12.53685045296007 UO-11 1 14781U 84021B 25016.85912458 .00003055 00000-0 33440-3 0 9992 2 14781 97.7353 346.3284 0009565 91.1597 269.0716 14.88488992201256 AO-27 1 22825U 93061C 25016.43608304 .00000229 00000-0 10482-3 0 9991 2 22825 98.7598 77.1315 0008623 168.3676 191.7707 14.30708104633379 FO-29 1 24278U 96046B 25016.35546557 .00000036 00000-0 73700-4 0 9992 2 24278 98.5890 289.1261 0349996 356.3343 3.5244 13.53231974403261 NOAA-15 1 25338U 98030A 25016.85347106 .00000313 00000-0 14656-3 0 9991 2 25338 98.5504 45.3431 0011192 63.1203 297.1121 14.26857749387906 GO-32 1 25397U 98043D 25016.81923311 .00000192 00000-0 10324-3 0 9997 2 25397 98.9527 353.0829 0000264 244.6996 115.4155 14.24234945378042 ISS 1 25544U 98067A 25016.86131621 .00020369 00000-0 36270-3 0 9993 2 25544 51.6385 336.6265 0002250 99.6404 260.4839 15.50098268491697 NO-44 1 26931U 01043C 25016.45613630 .00000424 00000-0 19030-3 0 9997 2 26931 67.0507 140.4366 0006270 261.4472 98.5919 14.31583738216477 SO-50 1 27607U 02058C 25016.14000433 .00002557 00000-0 34529-3 0 9991 2 27607 64.5549 286.1149 0038778 12.0623 348.1401 14.80765517187837 CO-55 1 27844U 03031E 25016.48664006 .00000586 00000-0 27541-3 0 9991 2 27844 98.6781 26.6231 0008705 243.2848 116.7440 14.23767156118136 CO-57 1 27848U 03031J 25016.43949052 .00000506 00000-0 24350-3 0 9994 2 27848 98.6808 26.6876 0008501 262.2147 97.8066 14.23135472117864 RS-22 1 27939U 03042A 25016.78038906 .00002199 00000-0 36170-3 0 9995 2 27939 98.3099 182.9489 0012641 103.9556 19.5729 14.71591045139670 NOAA-18 1 28654U 05018A 25016.79087689 .00000356 00000-0 21222-3 0 9993 2 28654 98.8563 97.8275 0014444 174.0990 186.0355 14.13487999 13435 CO-58 1 28895U 05043F 25016.33543086 .00002877 00000-0 48818-3 0 9996 2 28895 98.2261 159.1870 0015646 46.7411 313.5097 14.69923576 25746 CO-65 1 32785U 08021C 25016.88652988 .00007373 00000-0 57250-3 0 9996 2 32785 97.7686 347.4348 0009400 358.0190 2.0995 15.01605192907564 AAUSAT2 1 32788U 08021F 25016.91537906 .00074110 00000-0 17069-2 0 9991 2 32788 97.6048 7.2596 0006760 109.3309 250.8669 15.42320033911052 CO-66 1 32791U 08021J 25016.48061153 .00017833 00000-0 10204-2 0 9996 2 32791 97.7144 354.0509 0003170 331.2622 28.8433 15.12708855908661 RS-30 1 32953U 08025A 25016.82685334 .00000040 00000-0 21327-3 0 9992 2 32953 82.5059 316.6018 0019908 2.1754 357.9408 12.43157274755676 NOAA-19 1 33591U 09005A 25016.84484831 .00000308 00000-0 18847-3 0 9991 2 33591 99.0192 80.6215 0014413 52.6376 307.6106 14.13260941821800 SRMSAT 1 37841U 11058D 25016.86205072 .00000557 00000-0 15932-3 0 9992 2 37841 19.9730 304.1950 0011615 284.0339 118.9645 14.11338200685005 ZACUBE-1 1 39417U 13066B 25016.39638744 .00005874 00000-0 54473-3 0 9998 2 39417 97.7628 334.6029 0046442 171.1820 189.0227 14.93998674603369 Delfi-N3xt 1 39428U 13066N 25016.33309406 .00008372 00000-0 92296-3 0 9995 2 39428 97.8385 295.9484 0092010 113.7746 247.3150 14.84665933597822 GOMX-1 1 39430U 13066Q 25016.85713904 .00004264 00000-0 68129-3 0 9991 2 39430 97.7013 244.2574 0133765 292.4252 66.2830 14.66509702594336 LO-74 1 39440U 13066AA 25016.39052449 .00007672 00000-0 81853-3 0 9996 2 39440 97.8362 322.3133 0063189 296.1895 63.2833 14.87648490599987 AO-73 1 39444U 13066AE 25016.44757611 .00010049 00000-0 82898-3 0 9991 2 39444 97.7497 338.5474 0043852 145.9643 214.4406 14.98451122602564 DTUSAT-2 1 40030U 14033W 25016.63566613 .00010365 00000-0 74193-3 0 9990 2 40030 98.0399 342.0328 0009701 175.6286 184.5025 15.04588033575235 EO-80 1 40032U 14033Y 25016.39787687 .00010093 00000-0 72139-3 0 9997 2 40032 98.0270 341.6340 0010583 120.9682 239.2584 15.04641063574664 XW-2C 1 40906U 15049H 25016.82631165 .00255329 00000-0 11070-2 0 9991 2 40906 97.4469 49.6067 0002465 197.0282 163.0905 15.84199590517714 LILACSAT-2 1 40908U 15049K 25016.88346648 .00014159 00000-0 43398-3 0 9991 2 40908 97.5171 34.1806 0009253 324.4849 35.5776 15.33857338516166 IO-86 1 40931U 15052B 25016.55886635 .00001544 00000-0 11913-3 0 9992 2 40931 6.0017 267.3552 0013562 231.8221 128.0684 14.78512223503191 Horyu-4 1 41340U 16012D 25016.28341424 .00020769 00000-0 73849-3 0 9992 2 41340 30.9995 15.9370 0005982 351.5643 8.4899 15.27773088490633 Lapan A3 1 41603U 16040E 25016.79164375 .00004805 00000-0 17738-3 0 9997 2 41603 97.1386 27.1924 0013224 66.2753 293.9873 15.28133650475816 CAS-2T 1 41847U 16066G 25016.67925403 .00002356 00000-0 34830-3 0 9990 2 41847 98.4374 92.3584 0347806 253.5165 102.7547 14.42716934430269 CAS-4B 1 42759U 17034B 25016.57719187 .00037785 00000-0 79483-3 0 9995 2 42759 43.0131 87.6031 0015311 2.6035 357.4901 15.44526336420209 CAS-4A 1 42761U 17034D 25016.55037873 .00039653 00000-0 82219-3 0 9998 2 42761 43.0167 85.8040 0016255 10.3705 349.7486 15.44914246420213 TechnoSat 1 42829U 17042E 25016.44353259 .00004998 00000-0 40597-3 0 9996 2 42829 97.3925 192.1636 0014289 69.1540 291.1213 14.99951376409106 AO-91 1 43017U 17073E 25016.58421628 .00014319 00000-0 78630-3 0 9998 2 43017 97.5470 251.1400 0185543 296.8810 61.3555 15.00640638387581 S-Net D 1 43186U 18014G 25016.29860596 .00006804 00000-0 43144-3 0 9992 2 43186 97.5754 280.8209 0010073 10.6756 349.4685 15.09201378380596 S-Net B 1 43187U 18014H 25016.63388690 .00007063 00000-0 44770-3 0 9995 2 43187 97.5761 281.1162 0010608 4.6324 355.5001 15.09193397380642 S-Net A 1 43188U 18014J 25016.29943398 .00006694 00000-0 42444-3 0 9995 2 43188 97.5766 280.9181 0010563 6.3852 353.7510 15.09205360380594 S-Net C 1 43189U 18014K 25016.63598689 .00007171 00000-0 45436-3 0 9998 2 43189 97.5782 281.2398 0011857 357.0306 3.0851 15.09191891379194 Ten-Koh 1 43677U 18084G 25016.43381822 .00003653 00000-0 30581-3 0 9990 2 43677 98.0817 183.0495 0013892 28.4526 331.7451 14.99046708338637 PO-101 1 43678U 18084H 25016.88607375 .00003507 00000-0 30917-3 0 9995 2 43678 98.0894 187.7388 0009915 50.7370 309.4729 14.97101712338872 QO-100 1 43700U 18090A 25016.32744009 .00000145 00000-0 00000-0 0 9995 2 43700 0.0151 64.0928 0001279 234.5194 321.0327 1.00274295 22494 MinXSS-2 1 43758U 18099A 25016.12987578 .00017055 00000-0 82119-3 0 9997 2 43758 97.5247 82.2480 0012754 305.7994 54.2054 15.18755592334999 AO-95 1 43770U 18099N 25016.09050181 .00010929 00000-0 62411-3 0 9994 2 43770 97.5157 76.0300 0011774 0.2881 359.8354 15.12838799334675 RANGE-A 1 43773U 18099R 25016.08157840 .00006974 00000-0 47291-3 0 9990 2 43773 97.4722 68.7163 0011315 334.0448 26.0211 15.06696928334447 MOVE-II 1 43780U 18099Y 25016.60725418 .00054646 00000-0 14725-2 0 9992 2 43780 97.4894 86.1669 0004003 313.7083 46.3829 15.37633978335457 SNUSat 2 1 43782U 18099AA 25016.09243691 .00009617 00000-0 57968-3 0 9990 2 43782 97.4839 73.8826 0011750 296.5002 63.5023 15.10917786334653 SnugLite 1 43784U 18099AC 25016.14992311 .00011706 00000-0 66391-3 0 9990 2 43784 97.4653 73.2821 0002703 315.1411 44.9601 15.13120421334760 ITASat 1 1 43786U 18099AE 25016.09374295 .00008713 00000-0 54238-3 0 9992 2 43786 97.4808 73.7659 0015140 349.8279 10.2642 15.09736114334637 EAGLET 1 1 43790U 18099AJ 25016.10298779 .00006635 00000-0 44808-3 0 9994 2 43790 97.4997 74.1099 0012031 329.9364 30.1172 15.06861391334298 ESEO 1 43792U 18099AL 25016.58540741 .00002248 00000-0 17769-3 0 9999 2 43792 97.4725 69.6709 0007308 284.3554 75.6860 15.01613836334205 CSIM 1 43793U 18099AM 25016.59162234 .00056875 00000-0 15449-2 0 9995 2 43793 97.5060 88.0646 0007615 282.7343 77.3050 15.37354400335291 JO-97 1 43803U 18099AX 25016.59006166 .00014287 00000-0 75644-3 0 9993 2 43803 97.4897 77.3057 0007142 291.1936 68.8533 15.15509392334922 Suomi 100 1 43804U 18099AY 25016.60654643 .00012088 00000-0 67079-3 0 9995 2 43804 97.4966 76.9430 0012266 290.4795 69.5119 15.13835857334887 ISAT 1 43879U 18111D 25016.68935748 .00022289 00000-0 98988-3 0 9995 2 43879 97.6057 288.7130 0010647 355.5961 4.5179 15.21509388329730 UWE-4 1 43880U 18111E 25016.69607348 .00019421 00000-0 92446-3 0 9997 2 43880 97.5995 288.0263 0014303 1.8848 358.2438 15.19107643329732 Sparrow 1 43881U 18111F 25016.30793640 .00020863 00000-0 90574-3 0 9999 2 43881 97.6182 290.7233 0009843 35.1309 325.0574 15.22306814331779 Prox-1 1 44339U 19036A 25016.44503981 .00016018 00000-0 22916-2 0 9998 2 44339 23.9982 285.2170 0007704 235.2136 124.7635 14.74969564296766 SONATE 1 44400U 19038Q 25016.47043121 .00048660 00000-0 73278-3 0 9993 2 44400 97.7110 28.9870 0013286 65.3562 294.9073 15.54569950306967 Taurus 1 1 44530U 19059C 25016.80825613 .00009697 00000-0 19370-2 0 9990 2 44530 98.5901 149.9208 0010034 121.0803 239.1383 14.62085175282905 Duchifat 3 1 44854U 19089C 25016.79650715 .00035373 00000-0 11348-2 0 9996 2 44854 36.9479 179.0226 0009784 76.5151 283.6690 15.31394529280786 TO-108 1 44881U 19093C 25016.86832148 .00001803 00000-0 21731-3 0 9990 2 44881 97.8087 95.4818 0013691 348.8222 11.2687 14.84999552274745 FloripaSat 1 1 44885U 19093G 25016.78710205 .00008775 00000-0 79608-3 0 9995 2 44885 97.8263 104.3519 0010450 332.3026 27.7637 14.95510138275236 RS-44 1 44909U 19096E 25016.85785776 .00000014 00000-0 19991-4 0 9996 2 44909 82.5243 322.7877 0216321 271.6995 85.9342 12.79737760236340 UPMSat 2 1 46276U 20061E 25016.43953979 .00039877 00000-0 71327-3 0 9994 2 46276 97.2676 87.9692 0001753 84.6963 275.4488 15.49895740243017 AmicalSat 1 46287U 20061R 25010.85863821 .11283921 24654-5 56408-3 0 9994 2 46287 97.2840 89.8720 0009935 281.1985 78.8199 16.41970930241877 SALSAT 1 46495U 20068K 25016.41803222 .00010649 00000-0 51006-3 0 9995 2 46495 97.8446 348.3167 0010763 307.7252 52.3005 15.19087360236616 CubeSX-Sirius-HSE 1 47951U 21022V 25016.91159428 .00070274 00000-0 13432-2 0 9991 2 47951 97.4377 283.2880 0012287 89.6541 270.6117 15.47773993211350 CubeSX-HSE 1 47952U 21022W 25016.83444018 .00067564 00000-0 12799-2 0 9998 2 47952 97.4375 283.3710 0012235 89.5541 270.7112 15.48044458211358 KSU-Cubesat 1 47954U 21022Y 25016.69497819 .00122840 00000-0 14231-2 0 9993 2 47954 97.4369 286.5624 0011187 83.1490 277.1039 15.61342569211268 GRBAlpha 1 47959U 21022AD 25016.79399696 .00058214 00000-0 11077-2 0 9991 2 47959 97.4378 283.4948 0012053 89.4468 270.8163 15.47958610210176 Orbicraft-Zorkiy 1 47960U 21022AE 25016.83573333 .00102034 00000-0 14497-2 0 9999 2 47960 97.4375 286.1969 0011409 84.6267 275.6289 15.55977902211016 TUBIN 1 48900U 21059X 25016.76583120 .00032907 00000-0 69155-3 0 9994 2 48900 97.6634 176.1485 0005368 46.8453 313.3243 15.45257278197723 LEDSAT 1 49069U 21073D 25016.45895658 .00040814 00000-0 97320-3 0 9996 2 49069 97.4100 94.0824 0013084 242.4022 117.5897 15.41367196189100 CUTE 1 49263U 21088D 25016.62167451 .00044598 00000-0 11804-2 0 9995 2 49263 97.4699 89.3573 0010275 50.2581 309.9568 15.38194364182220 TeikyoSat 4 1 49396U 21102B 25016.54572541 .00003068 00000-0 21142-3 0 9994 2 49396 97.4312 60.1003 0011324 267.3589 92.6343 15.06518571174851 Z-Sat 1 49399U 21102E 25016.88248973 .00006745 00000-0 39206-3 0 9998 2 49399 97.4021 62.7257 0017508 239.7789 120.1709 15.12275602175244 KOSEN 1 1 49402U 21102H 25016.58366103 .00008626 00000-0 43825-3 0 9998 2 49402 97.3942 64.8725 0015836 217.8847 142.1273 15.17008410175434 HO-113 1 50466U 21131B 25016.85462825 .00001085 00000-0 35539-3 0 9995 2 50466 98.5173 106.9359 0003948 193.7158 166.3923 14.40453478160756 IRIS-A 1 51044U 22002BN 25016.45638621 .00062762 00000-0 99986-3 0 9996 2 51044 97.3520 90.6309 0003964 356.7911 3.3316 15.53044858167253 Foresail-1 1 52766U 22057AL 25016.80412269 .00063637 00000-0 10150-2 0 9992 2 52766 97.5972 156.5142 0005605 81.7798 278.4089 15.52999826147340 SNUGLITE 2 1 52899U 22065F 25016.85245061 .00002370 00000-0 47725-3 0 9993 2 52899 98.1448 160.4944 0007259 196.6253 163.4712 14.62442954135477 IO-117 1 53106U 22080B 25013.55270770 -.00000003 00000-0 00000+0 0 9994 2 53106 70.1424 119.4379 0008206 58.9554 301.1910 6.42557525 58785 FO-118 1 54684U 22167C 25016.88320610 .00190745 00000-0 16803-2 0 9993 2 54684 97.6118 177.6237 0002162 65.3836 294.7650 15.68141368117270 SO-120 1 56992U 23084BU 25016.60463587 .00288493 00000-0 18624-2 0 9998 2 56992 97.5313 149.6417 0008340 312.1232 47.9322 15.75253592 89112 UmKA 1 (RS40S) 1 57172U 23091G 25016.86301112 .00008303 00000-0 47890-3 0 9998 2 57172 97.5816 73.0932 0016740 108.4598 251.8454 15.12500923 85737 CubeBel-2 (EU11S) 1 57175U 23091K 25016.86891855 .00012371 00000-0 66398-3 0 9993 2 57175 97.5818 73.5343 0014625 117.5701 242.7018 15.14991191 85761 VERONIKA 1 58261U 23174F 25016.76306933 .00049062 00000-0 11979-2 0 9990 2 58261 97.4346 97.8762 0008024 204.0667 156.0205 15.40663439 66355 KAFASAT 1 58317U 23174BP 25016.82696995 .00121002 00000-0 18006-2 0 9992 2 58317 97.4249 100.5117 0005522 180.9881 179.1363 15.54701076 66553 ENSO 1 58470U 23185J 25016.86437608 .00039985 00000-0 10330-2 0 9992 2 58470 97.3964 89.1191 0008519 237.1118 122.9308 15.38981470 62817 EIRSAT-1 1 58472U 23185L 25016.88582185 .00050528 00000-0 11732-2 0 9990 2 58472 97.3959 89.6614 0007905 236.8262 123.2228 15.42176307 62851 SONATE-2 1 59112U 24043Q 25016.30571549 .00018527 00000-0 67114-3 0 9994 2 59112 97.4961 145.5442 0011653 267.4615 92.5290 15.28370635 48243 MO-122 1 60209U 24125G 25016.80490410 .00020216 00000-0 72338-3 0 9998 2 60209 97.2950 230.5889 0021015 294.5155 65.3894 15.28604716 29934 GRBBeta 1 60237U 24128C 25016.56869240 .00005402 00000-0 43788-3 0 9993 2 60237 61.9909 220.8782 0035803 23.6214 336.6510 15.00404708 28575 Curium One 1 60242U 24128H 25016.57745378 .00008659 00000-0 67377-3 0 9992 2 60242 61.9810 220.7033 0035652 17.4397 342.7909 15.01406445 28587 ROBUSTA-3A 1 60243U 24128J 25016.27557990 .00007008 00000-0 55357-3 0 9993 2 60243 61.9876 222.1567 0033807 15.0694 345.1395 15.01103547 28530 CatSat 1 60246U 24125J 25016.52439274 .00015008 00000-0 56925-3 0 9996 2 60246 97.2744 230.8479 0045060 245.7050 113.9479 15.25988340 27989 AO-123 1 61781U 24199AY 25016.85903438 .00011287 00000-0 45436-3 0 9996 2 61781 97.3761 246.5226 0017171 352.3445 7.7528 15.24904994 54957 POEM 4 (BGS ARPIT) 1 62461U 24253C 25016.62841595 .00080704 00000-0 54066-3 0 9992 2 62461 55.2211 174.4434 0005533 322.5956 37.4705 15.74620480 2658 /EX